Location: Unspecified
(41.5516°N, 88.1098°W)
Time: 18:29:22
(UTC-06:00)

Hubble Space Telescope - Visible Passes

Search period start: 31 January 2015 00:00
Search period end: 10 February 2015 00:00
Orbit: 544 x 548 km, 28.5° (Epoch: 31 January)

Date Brightness Start Highest point End Pass type
(mag) Time Alt. Az. Time Alt. Az. Time Alt. Az.
31 Jan 3.2 18:35:53 10° SSW 18:37:48 13° S 18:39:39 10° SSE visible
01 Feb 3.2 18:27:36 10° SSW 18:29:40 13° S 18:31:44 10° SSE visible
02 Feb 3.3 18:19:26 10° SSW 18:21:31 13° S 18:23:36 10° SSE visible
03 Feb 3.3 18:11:21 10° SSW 18:13:23 13° S 18:15:22 10° SSE visible
04 Feb 3.4 18:03:22 10° SSW 18:05:12 13° S 18:07:01 10° SSE visible
05 Feb 3.5 17:55:33 10° SSW 17:57:02 12° S 17:58:28 10° SSE visible
06 Feb 3.7 17:48:07 10° SSW 17:48:50 10° SSW 17:49:30 10° S visible
